When you browse on this site, cookies collect data to enhance your experience and personalize the content and advertising you see.
Visit our Privacy Policy to learn more. By continuing to use the site, you agree to this use of cookies and data.
  • In Switzerland
  • List of Countries
  • For 7 days
  • Water Temperature
  • Satellite Maps
  • Weather Map
  • Weather Widgets
  • user-avatar
    Login

    Hourly Weather Tomaryne

    Today, 21 April, Sunday

    Time Temperature Precipitation Wind Pressure Humidity
    00:00 +7°C° 0 mm 1 mps 764 mmHg 52%
    01:00 +7°C° 0 mm 1 mps 764 mmHg 53%
    02:00 +6°C° 0 mm 1 mps 764 mmHg 53%
    03:00 +6°C° 0 mm 1 mps 764 mmHg 54%
    04:00 +6°C° 0 mm 1 mps 764 mmHg 55%
    05:00 +6°C° 0 mm 1 mps 764 mmHg 55%
    06:00 +6°C° 0 mm 2 mps 764 mmHg 51%
    07:00 +8°C° 0 mm 2 mps 764 mmHg 47%
    08:00 +10°C° 0 mm 2 mps 764 mmHg 43%
    09:00 +11°C° 0 mm 3 mps 764 mmHg 40%
    10:00 +12°C° 0 mm 3 mps 764 mmHg 36%
    11:00 +14°C° 0 mm 4 mps 764 mmHg 32%
    12:00 +14°C° 0 mm 3 mps 764 mmHg 31%
    13:00 +14°C° 0 mm 3 mps 764 mmHg 31%
    14:00 +16°C° 0 mm 3 mps 764 mmHg 30%
    15:00 +14°C° 0 mm 3 mps 764 mmHg 33%
    16:00 +14°C° 0 mm 3 mps 763 mmHg 36%
    17:00 +15°C° 0 mm 2 mps 763 mmHg 38%
    18:00 +13°C° 0 mm 2 mps 764 mmHg 41%
    19:00 +12°C° 0 mm 2 mps 764 mmHg 44%
    20:00 +10°C° 0 mm 2 mps 764 mmHg 47%
    21:00 +10°C° 0 mm 1 mps 764 mmHg 49%
    22:00 +9°C° 0 mm 1 mps 764 mmHg 52%
    23:00 +8°C° 0 mm 1 mps 764 mmHg 54%

    Tomorrow, 22 April, Monday

    Time Temperature Precipitation Wind Pressure Humidity
    00:00 +8°C° 0 mm 1 mps 764 mmHg 54%
    01:00 +7°C° 0 mm 2 mps 764 mmHg 55%
    02:00 +7°C° 0 mm 2 mps 764 mmHg 56%
    03:00 +7°C° 0 mm 2 mps 764 mmHg 57%
    04:00 +7°C° 0 mm 3 mps 764 mmHg 58%
    05:00 +5°C° 0 mm 3 mps 764 mmHg 59%
    06:00 +8°C° 0 mm 3 mps 764 mmHg 55%
    07:00 +10°C° 0 mm 4 mps 764 mmHg 51%
    08:00 +12°C° 0 mm 5 mps 765 mmHg 47%
    09:00 +13°C° 0 mm 5 mps 765 mmHg 42%
    10:00 +14°C° 0 mm 5 mps 765 mmHg 38%
    11:00 +15°C° 0 mm 6 mps 765 mmHg 34%
    12:00 +15°C° 0 mm 5 mps 765 mmHg 33%
    13:00 +16°C° 0 mm 5 mps 765 mmHg 33%
    14:00 +17°C° 0 mm 4 mps 764 mmHg 33%
    15:00 +15°C° 0 mm 4 mps 764 mmHg 36%
    16:00 +16°C° 0 mm 3 mps 765 mmHg 39%
    17:00 +16°C° 0 mm 3 mps 765 mmHg 43%
    18:00 +15°C° 0 mm 2 mps 765 mmHg 45%
    19:00 +14°C° 0 mm 2 mps 765 mmHg 47%
    20:00 +13°C° 0 mm 2 mps 766 mmHg 49%
    21:00 +12°C° 0 mm 1 mps 766 mmHg 51%
    22:00 +11°C° 0 mm 1 mps 766 mmHg 52%
    23:00 +10°C° 0 mm 1 mps 766 mmHg 54%

    Day after tomorrow, 23 April, Tuesday

    Time Temperature Precipitation Wind Pressure Humidity
    00:00 +10°C° 0 mm 1 mps 766 mmHg 55%
    01:00 +9°C° 0 mm 1 mps 766 mmHg 57%
    02:00 +8°C° 0 mm 2 mps 766 mmHg 58%
    03:00 +8°C° 0 mm 2 mps 767 mmHg 60%
    04:00 +7°C° 0 mm 2 mps 767 mmHg 62%
    05:00 +7°C° 0 mm 3 mps 767 mmHg 64%
    06:00 +9°C° 0 mm 3 mps 767 mmHg 59%
    07:00 +11°C° 0 mm 3 mps 767 mmHg 54%
    08:00 +13°C° 0 mm 3 mps 768 mmHg 49%
    09:00 +14°C° 0 mm 4 mps 768 mmHg 45%
    10:00 +15°C° 0 mm 4 mps 768 mmHg 40%
    11:00 +17°C° 0 mm 4 mps 768 mmHg 36%
    12:00 +17°C° 0 mm 4 mps 768 mmHg 36%
    13:00 +18°C° 0 mm 4 mps 768 mmHg 36%
    14:00 +18°C° 0 mm 3 mps 768 mmHg 36%
    15:00 +17°C° 0 mm 3 mps 768 mmHg 38%
    16:00 +17°C° 0 mm 3 mps 768 mmHg 40%
    17:00 +17°C° 0 mm 3 mps 768 mmHg 42%
    18:00 +14°C° 0 mm 3 mps 768 mmHg 45%
    19:00 +13°C° 0 mm 2 mps 768 mmHg 48%
    20:00 +10°C° 0 mm 2 mps 768 mmHg 51%
    21:00 +10°C° 0 mm 2 mps 768 mmHg 50%
    22:00 +10°C° 0 mm 1 mps 768 mmHg 49%
    23:00 +10°C° 0 mm 1 mps 768 mmHg 48%

    24 April, Wednesday

    Time Temperature Precipitation Wind Pressure Humidity
    00:00 +9°C° 0 mm 1 mps 768 mmHg 49%
    01:00 +8°C° 0 mm 2 mps 768 mmHg 50%
    02:00 +8°C° 0 mm 2 mps 769 mmHg 51%
    03:00 +8°C° 0 mm 2 mps 769 mmHg 53%
    04:00 +7°C° 0 mm 2 mps 769 mmHg 55%
    05:00 +7°C° 0 mm 2 mps 768 mmHg 57%
    06:00 +9°C° 0 mm 3 mps 769 mmHg 53%
    07:00 +11°C° 0 mm 3 mps 769 mmHg 50%
    08:00 +13°C° 0 mm 3 mps 769 mmHg 46%
    09:00 +16°C° 0 mm 3 mps 769 mmHg 42%
    10:00 +17°C° 0 mm 3 mps 769 mmHg 39%
    11:00 +18°C° 0 mm 4 mps 769 mmHg 36%
    12:00 +19°C° 0 mm 3 mps 769 mmHg 35%
    13:00 +19°C° 0 mm 3 mps 768 mmHg 34%
    14:00 +19°C° 0 mm 2 mps 768 mmHg 33%
    15:00 +19°C° 0 mm 2 mps 768 mmHg 35%
    16:00 +19°C° 0 mm 2 mps 768 mmHg 37%
    17:00 +19°C° 0 mm 2 mps 768 mmHg 39%
    18:00 +17°C° 0 mm 2 mps 768 mmHg 44%
    19:00 +15°C° 0 mm 2 mps 768 mmHg 48%
    20:00 +13°C° 0 mm 2 mps 768 mmHg 53%
    21:00 +12°C° 0 mm 2 mps 768 mmHg 52%
    22:00 +12°C° 0 mm 1 mps 768 mmHg 52%
    23:00 +11°C° 0 mm 1 mps 768 mmHg 51%

    25 April, Thursday

    Time Temperature Precipitation Wind Pressure Humidity
    00:00 +11°C° 0 mm 1 mps 768 mmHg 52%
    01:00 +11°C° 0 mm 1 mps 769 mmHg 53%
    02:00 +10°C° 0 mm 1 mps 769 mmHg 53%
    03:00 +10°C° 0 mm 1 mps 768 mmHg 56%
    04:00 +10°C° 0 mm 1 mps 768 mmHg 58%
    05:00 +9°C° 0 mm 2 mps 768 mmHg 61%
    06:00 +12°C° 0 mm 2 mps 768 mmHg 57%
    07:00 +14°C° 0 mm 2 mps 768 mmHg 53%
    08:00 +16°C° 0 mm 2 mps 769 mmHg 49%
    09:00 +18°C° 0 mm 2 mps 768 mmHg 44%
    10:00 +19°C° 0 mm 2 mps 768 mmHg 40%
    11:00 +20°C° 0 mm 2 mps 768 mmHg 36%
    12:00 +21°C° 0 mm 2 mps 768 mmHg 35%
    13:00 +23°C° 0 mm 2 mps 767 mmHg 34%
    14:00 +23°C° 0 mm 1 mps 767 mmHg 33%
    15:00 +23°C° 0 mm 2 mps 767 mmHg 36%
    16:00 +21°C° 0 mm 2 mps 767 mmHg 40%
    17:00 +21°C° 0 mm 2 mps 766 mmHg 43%
    18:00 +19°C° 0 mm 2 mps 766 mmHg 47%
    19:00 +18°C° 0 mm 2 mps 766 mmHg 52%
    20:00 +16°C° 0 mm 1 mps 766 mmHg 56%
    21:00 +15°C° 0 mm 1 mps 766 mmHg 58%
    22:00 +14°C° 0 mm 1 mps 766 mmHg 60%
    23:00 +14°C° 0 mm 1 mps 766 mmHg 62%

    26 April, Friday

    Time Temperature Precipitation Wind Pressure Humidity
    00:00 +13°C° 0 mm 1 mps 766 mmHg 63%
    01:00 +13°C° 0 mm 1 mps 765 mmHg 64%
    02:00 +13°C° 0 mm 1 mps 765 mmHg 65%
    03:00 +12°C° 0 mm 1 mps 765 mmHg 67%
    04:00 +12°C° 0 mm 1 mps 765 mmHg 68%
    05:00 +12°C° 0 mm 1 mps 765 mmHg 70%
    06:00 +14°C° 0 mm 1 mps 765 mmHg 65%
    07:00 +16°C° 0 mm 2 mps 765 mmHg 60%
    08:00 +18°C° 0 mm 2 mps 765 mmHg 55%
    09:00 +19°C° 0 mm 3 mps 765 mmHg 51%
    10:00 +21°C° 0 mm 3 mps 764 mmHg 48%
    11:00 +22°C° 0 mm 4 mps 764 mmHg 44%
    12:00 +22°C° 0 mm 4 mps 764 mmHg 43%
    13:00 +23°C° 0 mm 4 mps 763 mmHg 42%
    14:00 +23°C° 0 mm 4 mps 763 mmHg 41%
    15:00 +22°C° 0 mm 4 mps 762 mmHg 43%
    16:00 +22°C° 0 mm 4 mps 762 mmHg 45%
    17:00 +21°C° 0 mm 4 mps 762 mmHg 46%
    18:00 +19°C° 0 mm 4 mps 762 mmHg 52%
    19:00 +17°C° 0 mm 4 mps 762 mmHg 57%
    20:00 +14°C° 0 mm 3 mps 762 mmHg 63%
    21:00 +13°C° 0 mm 3 mps 762 mmHg 65%
    22:00 +12°C° 0 mm 3 mps 761 mmHg 67%
    23:00 +11°C° 0 mm 3 mps 761 mmHg 69%
    Show more